KINEIS-3B

Last updated on Fri Sep 11 2026 00:02:53 GMT+0000 (Coordinated Universal Time)

1 61224U 24172E 26253.51053263 .00001166 00000+0 19236-3 0 9991 2 61224 98.0398 342.5967 0002843 132.9691 227.1756 14.72314026105903
UTC large
Height (km)
Speed (km/s)
/
Latitude / Longitude
Inclination (degrees)
Orbital Period (minutes)
Azimuth
Elevation
Range (km)
Doppler Factor

Next 0 passes for location: London (51.5072 / 0.1276)

No passes found over London.
KINEIS-3B